Volver al catálogo

COSMOS 2499 DEB

LostPO
NORAD 56568·DEBRIS·🇷🇺 Russia

Lanzado May 23, 2014 desde Plesetsk Cosmodrome

Loading…

Próximos Pases (próximas 24 horas)

TLE

ObsoletoSource: Space-Track

Época: Sep 27, 2024, 08:07 UTC

1 56568U 14028BB  24271.33858758  .00008730  00000-0  17255-1 0  9997
2 56568  82.3441 287.5599 0324774 298.5447  58.3338 13.17147015 81183

Sigue COSMOS 2499 DEB en tiempo real con AllMySat

Download on the App Store